Location: Wildcat Hills Observatory
(41.6350°N, 103.6812°W)
Time: 03:15:36
(UTC-06:00)

Daily predictions for brighter satellites

Satellite Brightness Start Highest point End
(mag) Time Altitude Azimuth Time Altitude Azimuth Time Altitude Azimuth
Cosmos 2219 4.5 00:03:55 10° N 00:08:50 30° NE 00:09:43 29° ENE
Meteor 1-23 Rocket 4.5 00:04:05 10° NNW 00:09:26 57° W 00:09:26 57° W
Iridium 4 Rocket 4.4 00:05:44 10° NNW 00:11:20 45° W 00:11:58 44° WSW
ALOS 2 3.6 00:13:07 43° NNE 00:13:07 43° NNE 00:16:15 10° N
Cosmos 1934 Rocket 4.4 00:11:04 46° WSW 00:12:02 50° WNW 00:17:56 10° N
Cosmos 2173 Rocket 4.4 00:18:58 51° E 00:18:58 51° E 00:24:57 10° NNE
Cosmos 2123 Rocket 4.4 00:15:12 10° NNW 00:21:13 51° W 00:21:40 50° WSW
Cosmos 1943 Rocket 2.4 00:22:13 60° NE 00:22:13 60° NE 00:26:53 10° NNE
Cosmos 1153 Rocket 4.4 00:23:54 82° SW 00:24:08 85° W 00:30:29 10° N
CZ-4B R/B 4.4 00:30:52 15° N 00:30:52 15° N 00:31:32 10° N
MOS 1-B Rocket 4.0 00:39:26 79° ESE 00:39:43 81° ENE 00:46:42 10° NNW
Cosmos 968 Rocket 3.9 00:38:22 10° NNW 00:42:45 60° N 00:42:45 60° N
NOSS 3-3 (A) 4.5 00:45:13 47° E 00:45:13 47° E 00:50:37 10° NE
H-2A R/B 3.7 00:40:38 10° N 00:43:50 44° N 00:43:50 44° N
ISS 0.1 00:51:31 10° NNW 00:51:55 12° NNW 00:51:55 12° NNW
BREEZE-M DEB (TANK) 4.4 00:46:05 10° WNW 00:57:48 46° N 01:00:14 23° ENE
GP-B 4.3 00:58:18 10° N 01:01:14 40° NNW 01:01:14 40° NNW
ATLAS 2AS CENTAUR R/B 2.9 00:57:03 10° NW 01:05:06 70° WSW 01:05:37 68° SW
BREEZE-M DEB (TANK) 3.6 01:02:44 10° WNW 01:06:29 79° NNE 01:20:51 10° ESE
CZ-2C R/B 3.5 01:12:07 55° NNE 01:12:07 55° NNE 01:16:05 10° N
USA 234 4.4 01:05:27 10° NE 01:11:27 40° NNW 01:17:25 10° W
Lacrosse 5 rocket 4.4 01:12:05 10° NNW 01:12:58 11° NNW 01:13:50 10° N
SL-08 R/B 4.4 01:15:04 85° ESE 01:15:07 85° E 01:21:32 10° N
Lacrosse 5 4.5 01:33:17 10° WNW 01:36:42 18° NNW 01:40:06 10° NNE
CZ-2C R/B 3.1 01:32:42 10° N 01:37:25 52° NW 01:37:25 52° NW
Cosmos 2098 Rocket 4.2 01:40:04 72° SW 01:40:50 81° W 01:48:31 10° N
Cosmos 2233 Rocket 4.0 01:40:48 66° ESE 01:40:57 67° E 01:47:02 10° NNE
Cosmos 2208 Rocket 4.2 01:45:15 67° N 01:45:15 67° N 01:49:49 10° NNE
Cosmos 2016 Rocket 4.5 01:45:42 46° W 01:45:50 46° WNW 01:51:42 10° N
Meteor 2-9 Rocket 4.2 01:47:56 79° ENE 01:47:56 79° ENE 01:53:36 10° NNE
Meteor 1-21 4.5 01:43:09 10° NNW 01:48:03 58° WNW 01:48:03 58° WNW
Cosmos 1656 Rocket 4.4 01:51:24 43° WNW 01:51:40 44° WNW 01:57:03 10° NNE
Cosmos 2227 Rocket 2.6 01:47:27 10° NNW 01:53:03 56° ENE 01:53:53 51° E
Cosmos 2219 4.2 01:47:51 10° NW 01:51:36 34° WNW 01:51:36 34° WNW
Cosmos 2228 4.1 01:55:22 43° NNE 01:55:22 43° NNE 01:58:19 10° N
SeaSat 1 3.0 01:54:47 51° ENE 01:55:07 52° ENE 01:59:55 10° NNW
Cosmos 1943 Rocket 4.2 02:03:43 16° WNW 02:05:39 19° NW 02:09:31 10° N
Meteor 1-15 Rocket 4.2 02:13:34 71° W 02:13:42 71° W 02:19:37 10° N
Cosmos 2297 Rocket 2.6 02:08:23 10° NNW 02:13:59 58° ENE 02:15:22 46° ESE
Cosmos 2278 3.6 02:14:20 84° ESE 02:14:22 84° ESE 02:20:04 10° NNE
Cosmos 2369 3.6 02:16:47 78° ESE 02:16:51 78° ESE 02:22:32 10° NNE
Meteor 2-5 Rocket 4.1 02:16:22 10° N 02:22:13 62° ENE 02:23:36 49° SE
BREEZE-M DEB (TANK) 4.4 02:25:57 18° ENE 02:25:57 18° ENE 02:26:53 10° ENE
SL-08 R/B 3.9 02:24:13 48° E 02:24:41 50° ENE 02:29:10 10° N
Cosmos 405 Rocket 3.7 02:23:03 10° N 02:26:15 47° NNE 02:26:15 47° NNE
NOSS 3-4 (A) 4.0 02:21:20 10° NNW 02:28:18 69° NE 02:35:39 10° SE
NOSS 3-4 (C) 4.0 02:21:27 10° NNW 02:28:26 68° NE 02:35:49 10° SE
Cosmos 2150 Rocket 3.8 02:26:44 10° NNW 02:31:59 85° ENE 02:32:08 83° ESE
Cosmos 1898 Rocket 3.4 02:28:34 10° NNW 02:33:57 90° E 02:34:11 82° SSE
ERS-2 4.0 02:31:06 10° NE 02:33:46 24° E 02:33:46 24° E
ATLAS CENTAUR R/B 1.8 02:34:29 81° ENE 02:34:29 81° ENE 02:39:20 10° NE
Cosmos 972 Rocket 4.4 02:31:19 10° NNW 02:35:25 49° WNW 02:35:25 49° WNW
Cosmos 1812 Rocket 3.8 02:38:07 65° NNW 02:38:07 65° NNW 02:42:02 10° N
Cosmos 1763 Rocket 4.2 02:38:50 40° ESE 02:39:31 42° ESE 02:44:22 10° NNE
Cosmos 1937 Rocket 3.5 02:36:46 10° NNW 02:41:58 76° ENE 02:42:49 61° SE
Cosmos 2034 Rocket 4.0 02:43:24 51° SSE 02:45:01 73° E 02:51:11 10° NNE
Cosmos 1656 3.6 02:45:19 64° SSE 02:46:06 75° ESE 02:51:46 10° NNE
IRS-1C 4.3 02:48:54 10° NNE 02:54:14 67° ESE 02:55:22 52° SSE
CZ-2D R/B 3.8 02:50:17 10° NE 02:54:50 27° E 02:57:37 18° SE
Meteor 1-24 Rocket 4.0 02:50:18 10° N 02:56:04 68° E 02:58:37 35° SSE
IRAS Rocket 4.2 02:56:38 10° NNE 03:02:18 83° ESE 03:03:44 52° S
ARIANE 5 R/B 3.5 02:57:57 10° NNE 03:02:48 40° E 03:04:48 29° SE
SL-16 R/B 3.3 02:59:11 10° SE 03:05:05 49° ENE 03:10:58 10° N
Cosmos 1707 3.5 03:04:52 10° NNW 03:07:51 43° NW 03:07:51 43° NW
IRS-P3 4.4 03:05:14 10° N 03:10:26 53° WNW 03:11:23 46° WSW
Meteor 2-12 Rocket 4.4 03:13:07 41° S 03:15:22 85° E 03:21:28 10° N
ADEOS 3.5 03:14:17 10° NNE 03:19:32 89° WNW 03:21:04 48° SSW
Cosmos 1697 Rocket 2.6 03:19:13 48° SW 03:20:50 78° WNW 03:26:32 10° NNE
Cosmos 1953 3.4 03:20:15 32° SE 03:21:30 41° E 03:25:21 10° NNE
Okean 3 Rocket 3.9 03:17:36 10° NNW 03:21:38 47° W 03:21:38 47° W
NOSS 7 (H) 4.5 03:25:34 70° NNE 03:25:34 70° NNE 03:28:36 10° NE
Spot 4 Rocket 3.9 03:20:39 10° NNE 03:25:51 89° WNW 03:27:33 44° SSW
Resurs 1-4 Rocket 2.7 03:22:01 10° NNE 03:27:09 51° E 03:29:56 26° SSE
Cosmos 1076 Rocket 3.4 03:24:10 10° N 03:28:31 87° WSW 03:29:32 52° S
Cosmos 1634 Rocket 4.4 03:25:23 23° SSE 03:29:21 62° E 03:35:34 10° NNE
CBERS-1 4.4 03:24:44 10° N 03:29:39 47° WNW 03:30:53 39° WSW
AQUA 4.3 03:25:34 10° N 03:30:05 44° WNW 03:30:58 40° W
Cosmos 1980 Rocket 2.2 03:28:07 39° S 03:30:15 78° ESE 03:35:57 10° NNE
SeaSat 1 4.1 03:34:34 18° W 03:34:34 18° W 03:36:34 10° WNW
IRS-1D 3.5 03:30:12 10° NNE 03:35:11 74° ESE 03:37:26 33° S
Cosmos 2227 Rocket 3.7 03:32:31 10° NW 03:35:39 20° W 03:35:39 20° W
SAR-Lupe-3 4.3 03:39:27 70° WSW 03:39:33 71° WSW 03:43:02 10° NNW
Cosmos 1092 Rocket 3.9 03:34:43 10° N 03:41:02 82° W 03:45:29 21° S
Cosmos 990 Rocket 4.4 03:37:26 10° NNW 03:42:22 42° WSW 03:43:25 38° SW
Cosmos 2322 Rocket 3.3 03:39:52 17° SSE 03:43:36 39° ESE 03:48:46 10° NE
Cosmos 332 Rocket 4.5 03:41:27 25° SSE 03:43:59 49° ESE 03:48:39 10° NNE
USA 161 2.9 03:47:56 27° NW 03:47:56 27° NW 03:49:29 10° NNW
Cosmos 1743 Rocket 3.7 03:45:56 10° N 03:50:17 70° E 03:53:41 16° SSE
Cosmos 1378 3.7 03:49:54 10° NNW 03:53:27 38° W 03:53:33 38° W
Cosmos 2297 Rocket 3.6 03:53:34 10° NW 03:57:07 20° W 03:57:07 20° W
Cosmos-2242 3.0 03:56:47 35° SSW 03:58:29 69° W 04:02:46 10° N
UNK 3.7 03:55:42 24° S 03:58:31 67° W 04:03:12 10° NNW
MOS 1-B 4.4 03:53:29 10° NNE 03:59:20 78° ESE 04:03:40 19° S
Cosmos 372 Rocket 4.2 03:55:06 10° NNW 04:00:12 68° ENE 04:05:15 10° SSE
Cosmos 1437 2.7 03:57:43 10° N 04:01:04 84° W 04:02:27 33° S
RESURS DK-1 2.6 03:57:19 10° NNW 04:01:28 70° ENE 04:05:34 10° SSE
Cosmos 371 Rocket 4.0 03:59:13 17° S 04:02:39 49° ESE 04:07:18 10° NNE
Milstar 3 Cent rocket 3.4 04:02:11 21° SSW 04:03:12 22° S 04:08:31 10° SE
GPS 2-04 Rocket1 3.7 04:04:39 28° S 04:04:39 28° S 04:07:49 10° SE
Aureole 1 Rocket 4.4 04:01:14 18° S 04:05:57 70° ESE 04:13:39 10° NNE
MTI 3.9 04:04:02 18° SSE 04:06:22 77° ENE 04:09:40 10° N
ERS-2 3.7 04:05:00 10° NNW 04:07:54 22° WNW 04:08:37 21° W
SL-24 R/B - RUBIN 2 4.4 04:04:34 24° SSW 04:08:12 78° ESE 04:14:37 10° NE
Okean O Rocket 2.6 04:03:58 10° NNE 04:08:13 45° E 04:12:27 10° S
Cosmos 1470 3.5 04:05:07 15° SSE 04:08:13 52° E 04:12:06 10° NNE
Cosmos 1408 Rocket 4.4 04:06:04 10° NNW 04:09:59 32° W 04:11:11 27° WSW
USA 81 4.1 04:06:35 15° S 04:11:01 85° E 04:16:20 10° N
CZ-2C R/B 4.4 04:08:44 10° SSE 04:13:19 58° ENE 04:17:50 10° N
ATLAS CENTAUR R/B 3.8 04:10:48 11° W 04:14:02 18° NW 04:17:27 10° N
Cosmos 1766 Rocket 4.5 04:11:42 10° NNW 04:15:34 30° W 04:16:59 25° WSW
SL-16 R/B 2.4 04:13:56 16° SSW 04:18:25 71° ESE 04:24:06 10° NNE
PSLV R/B 4.2 04:16:30 10° NNE 04:20:18 59° E 04:23:37 12° S
Cosmos 2279 Rocket 4.0 04:14:57 11° S 04:20:58 90° SSE 04:27:16 10° N
Cosmos 2360 4.4 04:17:19 22° SW 04:20:59 60° WNW 04:26:39 10° NNE
Cosmos 1125 Rocket 3.8 04:17:06 10° NNW 04:22:03 45° WSW 04:26:57 10° S
Abrixas 3.8 04:23:24 24° S 04:23:24 24° S 04:25:15 10° SSE
DELTA 2 R/B (1) 4.3 04:22:53 19° SSW 04:26:14 38° SSE 04:31:23 10° E
Cosmos 2263 Rocket 3.1 04:22:14 10° NNW 04:27:41 51° ENE 04:33:03 10° SE
CZ-2D R/B 3.6 04:26:54 10° N 04:31:14 68° WNW 04:34:53 15° SSW
Cosmos 1461 3.1 04:28:23 10° NW 04:32:17 43° WSW 04:36:02 10° S
Centaur D-1A AC-31 4.4 04:15:59 16° SW 04:32:30 31° S 04:38:46 10° ESE
IRS-1C Rocket 4.1 04:27:13 10° NNE 04:32:31 88° ESE 04:37:46 10° SSW
ADEOS II 4.1 04:28:12 10° NE 04:32:33 26° E 04:36:52 10° SSE
UNKNOWN OBJECT B 3.3 04:30:03 10° N 04:33:43 42° WNW 04:36:06 19° SW
Lacrosse 5 rocket 4.0 04:31:54 10° NNW 04:34:27 18° NNE 04:36:59 10° ENE
CZ-2D R/B 2.8 04:29:57 10° N 04:35:01 41° WNW 04:38:57 16° SW
Cosmos 1544 3.6 04:34:34 20° SW 04:36:41 40° WNW 04:40:09 10° N
Cosmos 1842 Rocket 3.8 04:34:25 16° SSW 04:37:52 52° W 04:42:17 10° N
BREEZE-M DEB (TANK) 3.1 04:35:13 15° WSW 04:38:53 63° NNW 04:43:20 10° NE
CZ-4B R/B 3.4 04:34:35 10° NNE 04:40:08 77° ESE 04:45:32 10° S
Cosmos 1733 3.1 04:37:05 11° SSW 04:40:38 78° W 04:44:27 10° N
ARIANE 5 R/B 3.8 04:37:31 10° N 04:41:43 26° WNW 04:45:08 14° WSW
Cosmos 540 Rocket 4.0 04:38:33 16° SW 04:42:24 45° WNW 04:47:21 10° N
CZ-4B R/B 2.9 04:41:22 10° NNE 04:45:15 74° ESE 04:48:57 10° S
Cosmos 2266 Rocket 4.4 04:41:13 10° N 04:47:21 66° E 04:53:34 10° SSE
SL-16 R/B 3.5 04:44:10 11° SSW 04:48:55 27° W 04:54:03 10° NW
PAYLOAD B 4.3 04:43:28 10° NNE 04:49:07 86° WNW 04:54:42 10° SSW
DELTA 2 R/B (2) 4.0 04:48:13 17° WSW 04:49:43 34° SSW 04:51:30 10° ESE
GEOS 3 Rocket 3.9 04:45:32 10° SSE 04:50:30 44° WSW 04:55:26 10° NW
Cosmos 1655 Rocket 4.5 04:46:38 10° NNW 04:52:37 44° W 04:58:35 10° SSW
CZ-3 R/B 3.8 04:29:14 13° WSW 04:54:25 41° S 05:02:04 10° ESE
Cosmos 967 Rocket 4.5 04:48:10 10° NW 04:54:28 64° WSW 05:00:40 10° SSE
Sich 1 4.4 04:52:43 10° N 04:56:49 42° ENE 05:00:57 10° SSE
Aureole 3 4.2 04:52:22 10° N 04:56:53 74° E 05:02:42 10° SSE
Okean-O 3.5 04:52:58 10° NNE 04:57:17 50° E 05:01:35 10° S
Cosmos 2151 3.0 04:53:50 10° NNW 04:58:06 62° W 05:02:21 10° S
Cosmos 1953 4.3 04:56:01 11° WSW 04:58:11 15° WNW 05:00:31 10° NW
SWAS 4.4 04:53:58 10° SSW 04:58:16 83° WNW 05:02:36 10° NNE
Cosmos 1328 3.8 04:54:19 10° NNW 04:58:20 67° W 05:02:20 10° S
Alouette 2 Rocket 3.9 04:59:44 10° N 05:03:21 65° ENE 05:07:52 10° SSE
MOZ.5/SAFIR/RUBIN 5/SL-8 4.1 05:00:28 10° S 05:04:58 46° W 05:09:29 10° NNW
Cosmos 304 Rocket 4.4 05:00:31 10° S 05:05:13 58° ESE 05:09:58 10° NNE
Lacrosse 5 4.0 05:01:31 10° NNW 05:06:00 30° NNE 05:10:28 10° E
Resurs 1-4 Rocket 3.6 05:02:44 10° NNW 05:06:37 21° WNW 05:10:27 10° WSW
Cosmos 1674 3.8 05:05:36 10° NW 05:08:41 24° W 05:11:44 10° SW
USA 116 4.0 05:06:20 10° SSE 05:09:31 61° ENE 05:13:03 10° N
BREEZE-M DEB (TANK) 4.3 05:07:31 10° WNW 05:09:48 18° NNW 05:11:30 10° NE
Thor Agena Rocket 3.6 05:09:02 10° S 05:13:57 54° W 05:18:54 10° NNW
Cosmos 1666 Rocket 3.8 05:09:39 10° N 05:14:04 76° E 05:18:24 10° SSE
Cosmos 2360 Rocket 2.4 05:09:08 10° SSW 05:14:45 80° ESE 05:20:25 10° NNE
Cosmos 1980 Rocket 4.0 05:11:10 10° W 05:14:57 18° NW 05:18:45 10° N
Cosmos 1538 Rocket 4.4 05:13:47 10° SW 05:18:53 48° WNW 05:24:04 10° N
